Weather History for Point Lay, AK

Change the Weather History Date:

Wednesday, January 16, 2013

  Actual Average Record
Temperature  
Mean Temperature -24 °F -  
Max Temperature -15 °F -6 °F 15 °F (2002)
Min Temperature -32 °F -16 °F -37 °F (2014)
Degree Days  
Heating Degree Days 88    
Moisture  
Dew Point -30 °F    
Average Humidity 72    
Maximum Humidity 76    
Minimum Humidity 68    
Precipitation  
Precipitation 0.00 in - - ()
Sea Level Pressure  
Sea Level Pressure 30.51 in    
Wind  
Wind Speed 0 mph (North)    
Max Wind Speed 0 mph    
Max Gust Speed -    
Visibility 9 miles    
Events Snow    
Averages and records for this station are not official NWS values.
T = Trace of Precipitation, MM = Missing Value Source: NWS Daily Summary

Daily Weather History Graph

Daily Weather History Graph

Search for Another Location

Airport:

Trip Planner

Search our weather history database for the weather conditions in past years. The results will help you decide how hot, cold, wet, or windy it might be!

Date:

Astronomy

Jan. 16, 2013 Rise Set
Actual Time 1:18 PM AKST 2:46 PM AKST
Civil Twilight 11:01 AM AKST 5:03 PM AKST
Nautical Twilight 9:32 AM AKST 6:32 PM AKST
Astronomical Twilight 8:19 AM AKST 7:46 PM AKST
Moon 11:19 AM AKST (1/16) 12:12 AM AKST (1/16)
Length of Visible Light 6h 02m
Length of Day
1h 28m
Waxing Crescent, 29% of the Moon is Illuminated
Jan 16
Waxing Crescent
Jan 18
First Quarter
Jan 26
Full
Feb 3
Last Quarter
Feb 9
New

Hourly Weather History & Observations

Time (AKST) Temp. Dew Point Humidity Pressure Visibility Wind Dir Wind Speed Gust Speed Precip Events Conditions
12:56 AM -15.9 °F -22.0 °F 74% 30.29 in 10.0 mi Calm Calm - N/A   Clear
1:56 AM -17.9 °F -24.0 °F 74% 30.31 in 10.0 mi Calm Calm - N/A   Clear
2:56 AM -18.9 °F -24.9 °F 74% 30.34 in 10.0 mi Calm Calm - N/A   Clear
3:56 AM -18.9 °F -24.9 °F 74% 30.36 in 10.0 mi Calm Calm - N/A   Clear
4:56 AM -22.0 °F -27.9 °F 74% 30.38 in 10.0 mi Calm Calm - N/A   Clear
5:56 AM -22.9 °F -28.8 °F 74% 30.39 in 10.0 mi Calm Calm - N/A   Clear
6:56 AM -22.9 °F -28.8 °F 74% 30.41 in 10.0 mi Calm Calm - N/A   Clear
7:56 AM -24.0 °F -29.9 °F 74% 30.43 in 10.0 mi Calm Calm - N/A   Clear
8:56 AM -24.0 °F -31.0 °F 70% 30.45 in 10.0 mi Calm Calm - N/A   Clear
9:56 AM -22.9 °F -29.9 °F 70% 30.47 in 10.0 mi Calm Calm - N/A   Clear
10:43 AM -22.0 °F -29.2 °F 69% 30.47 in 5.0 mi Calm Calm - 0.00 in Snow Light Snow
10:56 AM -20.9 °F -27.9 °F 70% 30.50 in 6.0 mi Calm Calm - 0.00 in Snow Light Snow
11:06 AM -20.2 °F -27.4 °F 69% 30.48 in 5.0 mi Calm Calm - 0.00 in Snow Light Snow
11:56 AM -22.0 °F -27.4 °F 76% 30.50 in 10.0 mi Calm Calm - N/A   Mostly Cloudy
12:56 PM -24.0 °F -31.0 °F 70% 30.54 in 10.0 mi Calm Calm - N/A   Clear
1:56 PM -26.0 °F -31.9 °F 73% 30.55 in 6.0 mi Calm Calm - N/A   Haze
2:56 PM -26.9 °F -33.9 °F 69% 30.57 in 9.0 mi Calm Calm - N/A   Clear
3:56 PM -27.9 °F -35.0 °F 69% 30.58 in 10.0 mi Calm Calm - N/A   Clear
4:56 PM -29.9 °F - N/A% 30.59 in 10.0 mi Calm Calm - N/A   Clear
5:56 PM -31.0 °F - N/A% 30.59 in 10.0 mi Calm Calm - N/A   Clear
6:56 PM -31.0 °F - N/A% 30.61 in 10.0 mi Calm Calm - N/A   Clear
7:56 PM -29.9 °F - N/A% 30.62 in 10.0 mi Calm Calm - N/A   Mostly Cloudy
8:07 PM -31.0 °F - N/A% 30.60 in 10.0 mi Calm Calm - N/A   Scattered Clouds
8:56 PM -31.0 °F - N/A% 30.62 in 10.0 mi Calm Calm - N/A   Partly Cloudy
9:35 PM -32.8 °F - N/A% 30.61 in 10.0 mi Calm Calm - N/A   Mostly Cloudy
9:45 PM -29.2 °F - N/A% 30.61 in 10.0 mi Calm Calm - N/A   Overcast
9:56 PM -29.9 °F - N/A% 30.63 in 9.0 mi Calm Calm - N/A   Overcast
10:56 PM -28.8 °F -35.9 °F 69% 30.63 in 10.0 mi Calm Calm - N/A   Overcast
11:05 PM -29.2 °F -36.4 °F 68% 30.61 in 6.0 mi Calm Calm - N/A   Haze
11:56 PM -26.9 °F -33.9 °F 69% 30.63 in 10.0 mi Calm Calm - N/A   Overcast